Location: Arborea
(39.7744°N, 8.5819°E)
Time: 03:51:48
(UTC+00:00)

YAOGAN 1 - Pass Details

Date: 24 October 2021
Orbit: 618 x 620 km, 97.9° (Epoch: 27 November)

Event Time Altitude Azimuth Distance (km) Brightness Sun altitude
Rises 17:05:57 0° 124° (SE) 2,887 5.6 -6.9°
Reaches altitude 10° 17:08:50 10° 103° (ESE) 1,986 4.6 -7.5°
Maximum altitude 17:11:29 16° 65° (ENE) 1,620 4.1 -8.0°
Drops below altitude 10° 17:14:09 10° 27° (NNE) 1,994 4.8 -8.5°
Sets 17:17:02 0° 6° (N) 2,905 5.9 -9.0°
